Rogers City, MI

2:17 AM EDT on April 24, 2017 (GMT -0400)
Presque Isle County

Weather History for KPZQ - May, 2013

Change the Weather History Date:

Thursday, May 30, 2013

  Actual Average (KAPN) Record (KAPN)
Temperature  
Mean Temperature 70 °F -  
Max Temperature 88 °F 70 °F 94 °F (1937)
Min Temperature 52 °F 45 °F 29 °F (1961)
Cooling Degree Days 5    
Growing Degree Days 20 (Base 50)    
Moisture  
Dew Point 60 °F    
Average Humidity 76    
Maximum Humidity 97    
Minimum Humidity 38    
Precipitation  
Precipitation 0.00 in - - ()
Sea Level Pressure  
Sea Level Pressure 29.94 in    
Wind  
Wind Speed 5 mph (South)    
Max Wind Speed 14 mph    
Max Gust Speed 32 mph    
Visibility 8 miles    
Events Fog , Rain    
Averages and records for this station are not official NWS values.
T = Trace of Precipitation, MM = Missing Value Source: NWS Daily Summary

Daily Weather History Graph

Daily Weather History Graph

Search for Another Location

Airport or City:

Trip Planner

Search our weather history database for the weather conditions in past years. The results will help you decide how hot, cold, wet, or windy it might be!

Date:

Astronomy

May. 30, 2013 Rise Set
Actual Time 5:51 AM EDT 9:14 PM EDT
Civil Twilight 5:14 AM EDT 9:51 PM EDT
Nautical Twilight 4:26 AM EDT 10:39 PM EDT
Astronomical Twilight 3:26 AM EDT 11:40 PM EDT
Moon 1:04 AM EDT (5/30) 12:10 PM EDT (5/30)
Length of Visible Light 16h 36m
Length of Day
15h 23m
Waning Gibbous, 62% of the Moon is Illuminated
May 30
Waning Gibbous
May 31
Last Quarter
Jun 8
New
Jun 16
First Quarter
Jun 23
Full

Hourly Weather History & Observations

Time (EDT) Temp. Heat Index Dew Point Humidity Pressure Visibility Wind Dir Wind Speed Gust Speed Precip Events Conditions
12:14 AM 55.9 °F - 53.6 °F 92% 29.96 in 10.0 mi SE 3.5 mph - N/A   Clear
12:35 AM 55.4 °F - 53.2 °F 92% 29.96 in 10.0 mi Calm Calm - N/A   Clear
12:55 AM 54.9 °F - 52.9 °F 93% 29.96 in 10.0 mi SE 3.5 mph - N/A   Clear
1:15 AM 54.1 °F - 52.3 °F 94% 29.96 in 10.0 mi SE 3.5 mph - N/A   Clear
1:35 AM 53.8 °F - 52.2 °F 94% 29.97 in 10.0 mi SE 3.5 mph - N/A   Clear
1:55 AM 53.2 °F - 51.8 °F 95% 29.98 in 4.0 mi SSE 3.5 mph - N/A   Scattered Clouds
2:15 AM 53.1 °F - 51.8 °F 95% 29.98 in 0.8 mi SSE 4.6 mph - N/A   Overcast
2:35 AM 52.9 °F - 51.8 °F 96% 29.98 in 0.5 mi SE 3.5 mph - N/A Fog Fog
2:54 AM 52.9 °F - 51.8 °F 96% 29.98 in 0.5 mi SSE 4.6 mph - N/A Fog Fog
3:15 AM 52.9 °F - 51.8 °F 96% 29.98 in 0.8 mi SE 3.5 mph - N/A   Overcast
3:35 AM 52.7 °F - 51.8 °F 97% 29.97 in 1.8 mi SE 4.6 mph - N/A   Overcast
3:55 AM 52.9 °F - 51.8 °F 96% 29.97 in 1.2 mi SSE 4.6 mph - N/A   Overcast
4:15 AM 52.9 °F - 52.0 °F 97% 29.97 in 4.0 mi SE 5.8 mph - N/A   Overcast
4:35 AM 53.2 °F - 52.2 °F 96% 29.96 in 3.0 mi SSE 6.9 mph - N/A   Overcast
4:55 AM 53.4 °F - 52.3 °F 96% 29.96 in 3.0 mi SE 5.8 mph - N/A   Overcast
5:15 AM 53.6 °F - 52.7 °F 97% 29.96 in 2.5 mi SE 5.8 mph - N/A   Overcast
5:35 AM 53.6 °F - 52.7 °F 97% 29.96 in 2.0 mi SSE 3.5 mph - N/A   Overcast
5:55 AM 53.8 °F - 52.9 °F 97% 29.96 in 2.5 mi SSE 4.6 mph - N/A   Overcast
6:15 AM 54.1 °F - 53.2 °F 97% 29.97 in 2.5 mi Calm Calm - N/A   Overcast
6:35 AM 54.5 °F - 53.6 °F 97% 29.97 in 2.5 mi Calm Calm - N/A   Mist
6:54 AM 54.9 °F - 54.0 °F 97% 29.98 in 2.5 mi Calm Calm - N/A   Mist
7:15 AM 53.8 °F - 52.7 °F 96% 29.98 in 2.5 mi Calm Calm - N/A   Scattered Clouds
7:34 AM 52.5 °F - 51.4 °F 96% 29.98 in 5.0 mi Calm Calm - N/A   Scattered Clouds
7:55 AM 54.0 °F - 52.9 °F 96% 29.98 in 7.0 mi Calm Calm - N/A   Clear
8:15 AM 60.3 °F - 59.0 °F 96% 29.97 in 10.0 mi Calm Calm - N/A   Clear
8:35 AM 63.7 °F - 61.7 °F 93% 29.97 in 10.0 mi SSE 3.5 mph - N/A   Clear
8:55 AM 67.8 °F - 63.5 °F 86% 29.97 in 10.0 mi South 5.8 mph - N/A   Clear
9:15 AM 70.5 °F - 63.7 °F 79% 29.97 in 10.0 mi South 6.9 mph - N/A   Clear
9:35 AM 73.0 °F - 64.4 °F 74% 29.97 in 10.0 mi SSW 8.1 mph - N/A   Clear
9:55 AM 74.7 °F - 64.4 °F 70% 29.97 in 10.0 mi SSW 9.2 mph - N/A   Clear
10:15 AM 76.8 °F - 65.7 °F 68% 29.96 in 10.0 mi South 8.1 mph - N/A   Clear
10:35 AM 77.9 °F - 65.5 °F 65% 29.96 in 10.0 mi South 8.1 mph - N/A   Clear
10:55 AM 80.1 °F 82.1 °F 66.0 °F 62% 29.95 in 10.0 mi South 6.9 mph - N/A   Clear
11:14 AM 81.5 °F 83.7 °F 66.6 °F 60% 29.95 in 10.0 mi SSW 8.1 mph - N/A   Clear
11:35 AM 83.5 °F 85.3 °F 65.1 °F 54% 29.95 in 10.0 mi SW 9.2 mph - N/A   Scattered Clouds
11:54 AM 84.2 °F 85.8 °F 64.6 °F 52% 29.95 in 10.0 mi SW 9.2 mph - N/A   Mostly Cloudy
12:15 PM 83.1 °F 84.4 °F 63.7 °F 52% 29.96 in 10.0 mi WSW 11.5 mph - N/A   Scattered Clouds
12:35 PM 83.7 °F 84.5 °F 62.4 °F 49% 29.95 in 10.0 mi SSW 12.7 mph 17.3 mph N/A   Scattered Clouds
12:54 PM 85.5 °F 86.1 °F 62.2 °F 46% 29.95 in 10.0 mi SW 11.5 mph 17.3 mph N/A   Scattered Clouds
1:15 PM 86.2 °F 86.6 °F 61.9 °F 44% 29.94 in 10.0 mi SSW 11.5 mph - N/A   Mostly Cloudy
1:35 PM 86.9 °F 87.5 °F 62.4 °F 44% 29.93 in 10.0 mi SW 10.4 mph - N/A   Scattered Clouds
1:55 PM 86.7 °F 86.5 °F 60.1 °F 41% 29.93 in 10.0 mi SSW 11.5 mph 19.6 mph N/A   Scattered Clouds
2:15 PM 87.8 °F 87.6 °F 60.8 °F 40% 29.92 in 10.0 mi SSW 6.9 mph - N/A   Scattered Clouds
2:35 PM 88.3 °F 87.8 °F 59.9 °F 38% 29.91 in 10.0 mi South 9.2 mph 16.1 mph N/A   Scattered Clouds
2:55 PM 88.2 °F 87.6 °F 59.5 °F 38% 29.90 in 10.0 mi SSW 9.2 mph 17.3 mph N/A   Scattered Clouds
3:15 PM 87.8 °F 87.1 °F 59.0 °F 38% 29.90 in 10.0 mi SW 6.9 mph - N/A   Mostly Cloudy
3:35 PM 76.1 °F - 59.2 °F 56% 29.90 in 10.0 mi North 8.1 mph - N/A   Mostly Cloudy
3:55 PM 73.9 °F - 58.8 °F 59% 29.90 in 10.0 mi North 5.8 mph - N/A   Mostly Cloudy
4:15 PM 75.6 °F - 59.5 °F 57% 29.90 in 10.0 mi North 3.5 mph - N/A   Mostly Cloudy
4:35 PM 77.5 °F - 60.3 °F 55% 29.89 in 10.0 mi North 4.6 mph - N/A   Scattered Clouds
4:55 PM 71.2 °F - 58.5 °F 64% 29.90 in 7.0 mi WSW 3.5 mph - N/A   Mostly Cloudy
5:15 PM 70.7 °F - 63.0 °F 76% 29.92 in 2.0 mi WSW 13.8 mph 32.2 mph N/A Rain Heavy Rain
5:35 PM 68.9 °F - 64.2 °F 85% 29.91 in 7.0 mi SSW 5.8 mph - N/A Rain Light Rain
5:55 PM 72.0 °F - 67.1 °F 85% 29.91 in 10.0 mi SSW 6.9 mph - N/A   Scattered Clouds
6:14 PM 74.1 °F - 69.1 °F 84% 29.90 in 7.0 mi South 5.8 mph - N/A   Scattered Clouds
6:35 PM 77.5 °F - 70.0 °F 77% 29.89 in 7.0 mi South 9.2 mph - N/A   Scattered Clouds
6:55 PM 78.6 °F - 67.3 °F 68% 29.89 in 10.0 mi South 11.5 mph - N/A   Clear
7:15 PM 79.0 °F - 67.5 °F 68% 29.90 in 10.0 mi South 11.5 mph - N/A   Clear
7:35 PM 77.9 °F - 67.5 °F 70% 29.90 in 10.0 mi South 9.2 mph - N/A   Clear
7:55 PM 77.0 °F - 67.3 °F 72% 29.90 in 10.0 mi South 9.2 mph - N/A   Clear
8:15 PM 77.2 °F - 67.5 °F 72% 29.90 in 10.0 mi South 9.2 mph - N/A   Light Drizzle
8:35 PM 77.0 °F - 67.5 °F 72% 29.90 in 10.0 mi South 6.9 mph - N/A   Scattered Clouds
8:54 PM 75.9 °F - 66.7 °F 73% 29.90 in 10.0 mi South 9.2 mph - N/A   Clear
9:15 PM 74.5 °F - 66.2 °F 75% 29.91 in 10.0 mi South 11.5 mph - N/A   Clear
9:35 PM 73.8 °F - 66.2 °F 77% 29.91 in 10.0 mi South 11.5 mph 16.1 mph N/A   Clear
9:54 PM 73.4 °F - 65.8 °F 77% 29.90 in 10.0 mi South 9.2 mph - N/A   Clear
10:15 PM 72.5 °F - 65.8 °F 80% 29.91 in 10.0 mi South 9.2 mph - N/A   Clear
10:34 PM 72.1 °F - 65.8 °F 80% 29.92 in 10.0 mi South 10.4 mph - N/A   Clear
10:55 PM 72.7 °F - 66.2 °F 80% 29.91 in 10.0 mi South 11.5 mph 16.1 mph N/A   Clear
11:15 PM 72.7 °F - 66.2 °F 80% 29.91 in 10.0 mi South 10.4 mph - N/A   Clear
11:35 PM 72.0 °F - 66.2 °F 82% 29.90 in 10.0 mi South 10.4 mph - N/A Rain Light Rain
11:55 PM 71.6 °F - 66.6 °F 84% 29.89 in 7.0 mi SSW 9.2 mph - N/A Rain Rain